| time (UTC) | temp F | wind direction | speed MPH | gust MPH | rain 1hr in | rain 24hr in | rain mn in | humidity % | barometer mb |
| 20260905143058 | 67 | 22 | 3.0 | 7.0 | 0.00 | 0.03 | 0.03 | 97 | 1017.5 |
| 20260905141558 | 67 | 57 | 3.0 | 7.0 | 0.00 | 0.03 | 0.03 | 98 | 1017.4 |
| 20260905140055 | 66 | 67 | 3.0 | 7.0 | 0.00 | 0.03 | 0.03 | 98 | 1017.5 |
| 20260905134554 | 66 | 96 | 2.0 | 4.0 | 0.00 | 0.03 | 0.03 | 99 | 1017.5 |
| 20260905133059 | 66 | 99 | 2.0 | 6.0 | 0.00 | 0.03 | 0.03 | 99 | 1017.4 |
| 20260905131607 | 66 | 107 | 3.0 | 7.0 | 0.00 | 0.03 | 0.03 | 99 | 1017.4 |
| 20260905130055 | 66 | 59 | 1.0 | 5.0 | 0.00 | 0.03 | 0.03 | 99 | 1017.2 |
| 20260905124600 | 66 | 82 | 3.0 | 6.0 | 0.00 | 0.03 | 0.03 | 99 | 1016.8 |
| 20260905123049 | 66 | 69 | 2.0 | 4.0 | 0.00 | 0.03 | 0.03 | 99 | 1016.8 |
| 20260905121559 | 66 | 71 | 2.0 | 6.0 | 0.00 | 0.03 | 0.03 | 99 | 1016.4 |
| 20260905120056 | 65 | 56 | 2.0 | 5.0 | 0.00 | 0.03 | 0.03 | 100 | 1016.3 |
| 20260905114554 | 65 | 58 | 3.0 | 6.0 | 0.00 | 0.03 | 0.03 | 99 | 1015.9 |
| 20260905113048 | 65 | 76 | 2.0 | 7.0 | 0.00 | 0.03 | 0.03 | 99 | 1015.9 |
| 20260905111601 | 65 | 62 | 3.0 | 8.0 | 0.00 | 0.03 | 0.03 | 100 | 1015.7 |
| 20260905110059 | 65 | 61 | 4.0 | 9.0 | 0.00 | 0.03 | 0.03 | 99 | 1015.6 |
| 20260905104610 | 65 | 65 | 3.0 | 8.0 | 0.00 | 0.03 | 0.03 | 99 | 1015.7 |
| 20260905103055 | 65 | 24 | 3.0 | 5.0 | 0.00 | 0.03 | 0.03 | 99 | 1015.8 |
| 20260905101552 | 65 | 58 | 2.0 | 5.0 | 0.00 | 0.03 | 0.03 | 99 | 1016.0 |
| 20260905100051 | 65 | 32 | 2.0 | 5.0 | 0.00 | 0.03 | 0.03 | 100 | 1016.0 |
| 20260905094555 | 65 | 13 | 2.0 | 8.0 | 0.00 | 0.08 | 0.03 | 100 | 1016.0 |
| 20260905093055 | 65 | 21 | 3.0 | 6.0 | 0.00 | 0.08 | 0.03 | 100 | 1016.0 |
| 20260905091607 | 65 | 9 | 3.0 | 7.0 | 0.01 | 0.08 | 0.03 | 99 | 1016.2 |
| 20260905090047 | 65 | 22 | 3.0 | 6.0 | 0.01 | 0.08 | 0.03 | 100 | 1016.2 |
| 20260905084606 | 65 | 19 | 3.0 | 7.0 | 0.01 | 0.12 | 0.03 | 99 | 1016.1 |
| 20260905083056 | 65 | 15 | 3.0 | 8.0 | 0.02 | 0.12 | 0.03 | 99 | 1016.1 |
| 20260905081552 | 65 | 18 | 4.0 | 8.0 | 0.01 | 0.11 | 0.02 | 99 | 1015.8 |
| 20260905080047 | 65 | 34 | 3.0 | 9.0 | 0.01 | 0.11 | 0.02 | 99 | 1016.0 |
| 20260905074556 | 65 | 20 | 3.0 | 7.0 | 0.02 | 0.12 | 0.02 | 99 | 1015.9 |
| 20260905073058 | 65 | 56 | 2.0 | 7.0 | 0.01 | 0.11 | 0.01 | 99 | 1015.9 |
| 20260905071554 | 65 | 47 | 1.0 | 6.0 | 0.01 | 0.11 | 0.01 | 99 | 1015.8 |
| 20260905070106 | 65 | 63 | 3.0 | 6.0 | 0.01 | 0.11 | 0.01 | 99 | 1015.6 |
| 20260905064555 | 65 | 62 | 3.0 | 9.0 | 0.00 | 0.10 | 0.00 | 98 | 1015.4 |
| 20260905063056 | 65 | 46 | 4.0 | 9.0 | 0.00 | 0.10 | 0.00 | 98 | 1015.6 |
| 20260905061611 | 65 | 46 | 4.0 | 9.0 | 0.00 | 0.10 | 0.00 | 98 | 1015.8 |
| 20260905060048 | 65 | 14 | 4.0 | 10.0 | 0.00 | 0.10 | 0.00 | 98 | 1015.7 |
| 20260905054602 | 65 | 57 | 4.0 | 11.0 | 0.00 | 0.12 | 0.00 | 97 | 1015.5 |
| 20260905053056 | 65 | 23 | 6.0 | 12.0 | 0.00 | 0.12 | 0.00 | 97 | 1015.4 |
| 20260905051554 | 65 | 44 | 5.0 | 12.0 | 0.00 | 0.12 | 0.00 | 97 | 1015.4 |
| 20260905050050 | 65 | 43 | 4.0 | 11.0 | 0.00 | 0.12 | 0.00 | 97 | 1015.4 |
| 20260905044558 | 65 | 51 | 3.0 | 9.0 | 0.00 | 0.27 | 0.12 | 98 | 1015.5 |
| 20260905043054 | 65 | 42 | 3.0 | 9.0 | 0.00 | 0.27 | 0.12 | 98 | 1015.4 |
| 20260905041557 | 65 | 11 | 3.0 | 11.0 | 0.00 | 0.27 | 0.12 | 98 | 1015.3 |
| 20260905040055 | 65 | 23 | 6.0 | 11.0 | 0.00 | 0.27 | 0.12 | 98 | 1015.3 |
| 20260905034558 | 65 | 15 | 5.0 | 11.0 | 0.00 | 0.32 | 0.12 | 97 | 1015.3 |
| 20260905033057 | 65 | 360 | 5.0 | 10.0 | 0.00 | 0.32 | 0.12 | 97 | 1015.5 |
| 20260905031553 | 65 | 12 | 6.0 | 10.0 | 0.00 | 0.32 | 0.12 | 97 | 1015.6 |
| 20260905030059 | 65 | 38 | 4.0 | 10.0 | 0.00 | 0.32 | 0.12 | 97 | 1015.5 |
| 20260905024559 | 65 | 26 | 5.0 | 10.0 | 0.00 | 0.32 | 0.12 | 97 | 1015.5 |
| 20260905023054 | 65 | 360 | 4.0 | 10.0 | 0.00 | 0.32 | 0.12 | 97 | 1015.4 |
| 20260905021557 | 65 | 18 | 3.0 | 8.0 | 0.00 | 0.32 | 0.12 | 97 | 1015.3 |
| 20260905020059 | 65 | 19 | 4.0 | 9.0 | 0.00 | 0.32 | 0.12 | 97 | 1015.2 |
| 20260905014546 | 65 | 16 | 3.0 | 8.0 | 0.00 | 0.32 | 0.12 | 97 | 1015.3 |
| 20260905013100 | 65 | 360 | 3.0 | 8.0 | 0.00 | 0.32 | 0.12 | 97 | 1015.1 |
| 20260905011602 | 65 | 5 | 2.0 | 9.0 | 0.00 | 0.32 | 0.12 | 97 | 1014.9 |
| 20260905010106 | 66 | 5 | 3.0 | 10.0 | 0.00 | 0.32 | 0.12 | 97 | 1014.7 |
| 20260905004551 | 65 | 30 | 4.0 | 10.0 | 0.00 | 0.32 | 0.12 | 97 | 1014.6 |
| 20260905003059 | 65 | 16 | 5.0 | 10.0 | 0.00 | 0.32 | 0.12 | 97 | 1014.7 |
| 20260905001554 | 65 | 18 | 4.0 | 11.0 | 0.00 | 0.32 | 0.12 | 97 | 1014.6 |
| 20260905000051 | 65 | 5 | 4.0 | 9.0 | 0.00 | 0.32 | 0.12 | 96 | 1014.4 |
| 20260904234551 | 66 | 35 | 3.0 | 11.0 | 0.00 | 0.32 | 0.12 | 96 | 1014.4 |
| 20260904233055 | 66 | 59 | 5.0 | 9.0 | 0.00 | 0.32 | 0.12 | 96 | 1014.3 |
| 20260904231556 | 65 | 48 | 6.0 | 11.0 | 0.00 | 0.32 | 0.12 | 96 | 1014.3 |
| 20260904224603 | 66 | 18 | 5.0 | 9.0 | 0.00 | 0.32 | 0.12 | 95 | 1014.4 |
| 20260904223048 | 66 | 23 | 2.0 | 9.0 | 0.00 | 0.32 | 0.12 | 96 | 1014.2 |
| 20260904221557 | 66 | 22 | 3.0 | 11.0 | 0.00 | 0.32 | 0.12 | 95 | 1014.1 |
| 20260904220056 | 66 | 61 | 6.0 | 12.0 | 0.00 | 0.32 | 0.12 | 94 | 1014.1 |
| 20260904214557 | 67 | 54 | 5.0 | 11.0 | 0.00 | 0.32 | 0.12 | 94 | 1014.1 |
| 20260904213103 | 67 | 22 | 5.0 | 13.0 | 0.00 | 0.32 | 0.12 | 94 | 1014.0 |
| 20260904211558 | 67 | 51 | 5.0 | 10.0 | 0.00 | 0.32 | 0.12 | 94 | 1013.9 |
| 20260904210107 | 67 | 63 | 5.0 | 13.0 | 0.00 | 0.32 | 0.12 | 94 | 1013.7 |
| 20260904204553 | 67 | 48 | 3.0 | 11.0 | 0.00 | 0.32 | 0.12 | 94 | 1013.8 |
| 20260904203049 | 67 | 48 | 4.0 | 11.0 | 0.00 | 0.32 | 0.12 | 94 | 1013.8 |
| 20260904201547 | 67 | 57 | 5.0 | 13.0 | 0.00 | 0.32 | 0.12 | 93 | 1013.9 |
| 20260904200055 | 67 | 49 | 7.0 | 13.0 | 0.00 | 0.32 | 0.12 | 94 | 1013.7 |
| 20260904194554 | 67 | 52 | 5.0 | 14.0 | 0.00 | 0.32 | 0.12 | 94 | 1013.5 |
| 20260904193052 | 67 | 33 | 6.0 | 16.0 | 0.00 | 0.32 | 0.12 | 94 | 1013.5 |
| 20260904191542 | 67 | 85 | 7.0 | 15.0 | 0.00 | 0.32 | 0.12 | 93 | 1013.3 |
| 20260904190055 | 68 | 58 | 8.0 | 14.0 | 0.00 | 0.32 | 0.12 | 93 | 1013.0 |
| 20260904184559 | 68 | 44 | 8.0 | 14.0 | 0.00 | 0.32 | 0.12 | 92 | 1013.0 |
| 20260904183057 | 68 | 99 | 3.0 | 11.0 | 0.00 | 0.32 | 0.12 | 93 | 1012.9 |
| 20260904181555 | 68 | 53 | 6.0 | 10.0 | 0.00 | 0.32 | 0.12 | 93 | 1012.9 |
| 20260904180051 | 68 | 90 | 4.0 | 11.0 | 0.00 | 0.32 | 0.12 | 94 | 1012.8 |
| 20260904174557 | 67 | 57 | 6.0 | 11.0 | 0.00 | 0.32 | 0.12 | 94 | 1012.7 |
| 20260904173057 | 67 | 46 | 6.0 | 10.0 | 0.00 | 0.32 | 0.12 | 95 | 1012.8 |
| 20260904171559 | 67 | 67 | 6.0 | 13.0 | 0.00 | 0.32 | 0.12 | 95 | 1012.7 |
| 20260904170057 | 67 | 46 | 4.0 | 14.0 | 0.00 | 0.32 | 0.12 | 97 | 1012.7 |
| 20260904164558 | 66 | 70 | 6.0 | 11.0 | 0.00 | 0.32 | 0.12 | 97 | 1012.8 |
| 20260904163053 | 66 | 62 | 6.0 | 12.0 | 0.00 | 0.32 | 0.12 | 97 | 1012.9 |
| 20260904161551 | 66 | 56 | 7.0 | 13.0 | 0.00 | 0.32 | 0.12 | 97 | 1012.6 |
| 20260904160053 | 66 | 46 | 5.0 | 11.0 | 0.00 | 0.32 | 0.12 | 98 | 1012.7 |
| 20260904154600 | 66 | 53 | 7.0 | 14.0 | 0.00 | 0.32 | 0.12 | 98 | 1012.3 |
| 20260904153058 | 66 | 90 | 5.0 | 13.0 | 0.00 | 0.32 | 0.12 | 98 | 1012.2 |
| 20260904151554 | 66 | 43 | 5.0 | 12.0 | 0.00 | 0.32 | 0.12 | 98 | 1012.2 |
| 20260904150048 | 66 | 35 | 4.0 | 12.0 | 0.00 | 0.32 | 0.12 | 99 | 1012.1 |
| 20260904144601 | 67 | 39 | 7.0 | 10.0 | 0.00 | 0.32 | 0.12 | 99 | 1011.9 |